| time (UTC) | temp F | wind direction | speed knots | gust knots | rain 1hr in | rain 24hr in | rain mn in | humidity % | barometer mb |
| 20260503014017 | 63 | 65 | 1.7 | 5.2 | 0.00 | 0.00 | 0.00 | 35 | 1015.9 |
| 20260503013517 | 63 | 65 | 2.6 | 5.2 | 0.00 | 0.00 | 0.00 | 34 | 1016.1 |
| 20260503013056 | 64 | 72 | 2.6 | 7.0 | 0.00 | 0.00 | 0.00 | 33 | 1016.0 |
| 20260503012515 | 64 | 89 | 4.3 | 7.8 | 0.00 | 0.00 | 0.00 | 33 | 1016.0 |
| 20260503012015 | 65 | 65 | 5.2 | 7.8 | 0.00 | 0.00 | 0.00 | 33 | 1016.1 |
| 20260503011603 | 65 | 66 | 3.5 | 5.2 | 0.00 | 0.00 | 0.00 | 32 | 1016.2 |
| 20260503011018 | 66 | 14 | 1.7 | 4.3 | 0.00 | 0.00 | 0.00 | 31 | 1016.4 |
| 20260503010518 | 66 | 5 | 2.6 | 7.0 | 0.00 | 0.00 | 0.00 | 31 | 1016.3 |
| 20260503010119 | 66 | 34 | 3.5 | 7.0 | 0.00 | 0.00 | 0.00 | 31 | 1016.3 |
| 20260503005519 | 66 | 24 | 3.5 | 5.2 | 0.00 | 0.00 | 0.00 | 31 | 1016.3 |
| 20260503005021 | 66 | 16 | 2.6 | 5.2 | 0.00 | 0.00 | 0.00 | 30 | 1016.4 |
| 20260503004557 | 66 | 350 | 2.6 | 7.0 | 0.00 | 0.00 | 0.00 | 30 | 1016.3 |
| 20260503004018 | 66 | 344 | 4.3 | 7.0 | 0.00 | 0.00 | 0.00 | 30 | 1016.3 |
| 20260503003518 | 67 | 54 | 3.5 | 5.2 | 0.00 | 0.00 | 0.00 | 30 | 1016.5 |
| 20260503003051 | 67 | 33 | 2.6 | 7.0 | 0.00 | 0.00 | 0.00 | 30 | 1016.5 |
| 20260503002522 | 67 | 45 | 2.6 | 7.8 | 0.00 | 0.00 | 0.00 | 30 | 1016.7 |
| 20260503002019 | 67 | 11 | 5.2 | 7.0 | 0.00 | 0.00 | 0.00 | 29 | 1016.7 |
| 20260503001605 | 68 | 146 | 0.9 | 7.8 | 0.00 | 0.00 | 0.00 | 29 | 1016.6 |
| 20260503001018 | 68 | 17 | 3.5 | 7.8 | 0.00 | 0.00 | 0.00 | 29 | 1016.6 |
| 20260503000518 | 67 | 284 | 0.0 | 7.8 | 0.00 | 0.00 | 0.00 | 30 | 1016.7 |
| 20260503000107 | 67 | 360 | 2.6 | 10.4 | 0.00 | 0.00 | 0.00 | 30 | 1016.6 |
| 20260502235517 | 67 | 296 | 4.3 | 8.7 | 0.00 | 0.00 | 0.00 | 29 | 1016.6 |
| 20260502235022 | 67 | 272 | 1.7 | 11.3 | 0.00 | 0.00 | 0.00 | 30 | 1016.8 |
| 20260502234820 | 67 | 42 | 7.0 | 11.3 | 0.00 | 0.00 | 0.00 | 30 | 1016.7 |
| 20260502234017 | 67 | 36 | 7.0 | 11.3 | 0.00 | 0.00 | 0.00 | 29 | 1016.8 |
| 20260502233517 | 67 | 35 | 7.0 | 11.3 | 0.00 | 0.00 | 0.00 | 29 | 1016.7 |
| 20260502233052 | 68 | 27 | 2.6 | 8.7 | 0.00 | 0.00 | 0.00 | 29 | 1016.8 |
| 20260502232519 | 68 | 63 | 4.3 | 7.8 | 0.00 | 0.00 | 0.00 | 29 | 1017.0 |
| 20260502232019 | 68 | 355 | 3.5 | 11.3 | 0.00 | 0.00 | 0.00 | 29 | 1017.2 |
| 20260502231527 | 68 | 13 | 6.1 | 11.3 | 0.00 | 0.00 | 0.00 | 30 | 1017.2 |
| 20260502231019 | 67 | 5 | 3.5 | 8.7 | 0.00 | 0.00 | 0.00 | 30 | 1017.0 |
| 20260502230514 | 67 | 40 | 3.5 | 8.7 | 0.00 | 0.00 | 0.00 | 30 | 1017.2 |
| 20260502230044 | 67 | 32 | 4.3 | 10.4 | 0.00 | 0.00 | 0.00 | 30 | 1017.2 |
| 20260502225513 | 67 | 55 | 6.1 | 10.4 | 0.00 | 0.00 | 0.00 | 30 | 1017.3 |
| 20260502225016 | 67 | 112 | 1.7 | 4.3 | 0.00 | 0.00 | 0.00 | 30 | 1017.4 |
| 20260502224547 | 67 | 52 | 1.7 | 7.0 | 0.00 | 0.00 | 0.00 | 30 | 1017.5 |
| 20260502224015 | 66 | 329 | 1.7 | 7.8 | 0.00 | 0.00 | 0.00 | 30 | 1017.5 |
| 20260502223514 | 66 | 352 | 4.3 | 7.8 | 0.00 | 0.00 | 0.00 | 30 | 1017.7 |
| 20260502223047 | 67 | 352 | 3.5 | 7.8 | 0.00 | 0.00 | 0.00 | 29 | 1017.6 |
| 20260502222516 | 67 | 342 | 1.7 | 11.3 | 0.00 | 0.00 | 0.00 | 29 | 1017.9 |
| 20260502222015 | 68 | 5 | 7.0 | 11.3 | 0.00 | 0.00 | 0.00 | 28 | 1018.1 |
| 20260502221550 | 68 | 325 | 6.1 | 13.9 | 0.00 | 0.00 | 0.00 | 29 | 1018.1 |
| 20260502221020 | 68 | 5 | 8.7 | 13.9 | 0.00 | 0.00 | 0.00 | 29 | 1018.1 |
| 20260502220514 | 67 | 5 | 3.5 | 12.2 | 0.00 | 0.00 | 0.00 | 30 | 1018.0 |
| 20260502220047 | 67 | 320 | 6.1 | 13.9 | 0.00 | 0.00 | 0.00 | 30 | 1018.3 |
| 20260502215514 | 67 | 341 | 7.8 | 13.9 | 0.00 | 0.00 | 0.00 | 30 | 1018.2 |
| 20260502215014 | 67 | 311 | 0.9 | 12.2 | 0.00 | 0.00 | 0.00 | 32 | 1018.5 |
| 20260502214600 | 67 | 325 | 2.6 | 12.2 | 0.00 | 0.00 | 0.00 | 31 | 1018.4 |
| 20260502214011 | 66 | 337 | 5.2 | 12.2 | 0.00 | 0.00 | 0.00 | 31 | 1018.3 |
| 20260502213516 | 66 | 338 | 7.8 | 11.3 | 0.00 | 0.00 | 0.00 | 31 | 1018.3 |
| 20260502213316 | 66 | 352 | 7.0 | 10.4 | 0.00 | 0.00 | 0.00 | 32 | 1018.5 |
| 20260502212518 | 66 | 346 | 3.5 | 9.6 | 0.00 | 0.00 | 0.00 | 31 | 1018.7 |
| 20260502212018 | 66 | 12 | 6.1 | 9.6 | 0.00 | 0.00 | 0.00 | 30 | 1018.5 |
| 20260502211610 | 67 | 333 | 4.3 | 9.6 | 0.00 | 0.00 | 0.00 | 30 | 1018.7 |
| 20260502211016 | 68 | 350 | 3.5 | 12.2 | 0.00 | 0.00 | 0.00 | 30 | 1018.8 |
| 20260502210518 | 67 | 22 | 6.1 | 12.2 | 0.00 | 0.00 | 0.00 | 31 | 1019.1 |
| 20260502210101 | 66 | 339 | 2.6 | 13.0 | 0.00 | 0.00 | 0.00 | 31 | 1018.6 |
| 20260502205515 | 66 | 63 | 7.8 | 13.0 | 0.00 | 0.00 | 0.00 | 31 | 1018.7 |
| 20260502205027 | 66 | 282 | 3.5 | 11.3 | 0.00 | 0.00 | 0.00 | 31 | 1018.8 |
| 20260502204547 | 65 | 352 | 6.1 | 8.7 | 0.00 | 0.00 | 0.00 | 31 | 1019.1 |
| 20260502204018 | 66 | 71 | 4.3 | 15.6 | 0.00 | 0.00 | 0.00 | 30 | 1019.2 |
| 20260502203526 | 67 | 9 | 7.8 | 15.6 | 0.00 | 0.00 | 0.00 | 29 | 1019.1 |
| 20260502203101 | 67 | 28 | 8.7 | 12.2 | 0.00 | 0.00 | 0.00 | 30 | 1019.0 |
| 20260502202516 | 67 | 302 | 2.6 | 12.2 | 0.00 | 0.00 | 0.00 | 30 | 1019.2 |
| 20260502202014 | 67 | 336 | 7.8 | 14.8 | 0.00 | 0.00 | 0.00 | 30 | 1019.3 |
| 20260502201926 | 66 | 9 | 8.7 | 12.2 | 0.00 | 0.00 | 0.00 | 31 | 1019.4 |
| 20260502201019 | 66 | 92 | 8.7 | 12.2 | 0.00 | 0.00 | 0.00 | 31 | 1019.5 |
| 20260502200511 | 66 | 9 | 9.6 | 15.6 | 0.00 | 0.00 | 0.00 | 30 | 1019.5 |
| 20260502200105 | 66 | 25 | 10.4 | 15.6 | 0.00 | 0.00 | 0.00 | 31 | 1019.5 |
| 20260502195521 | 65 | 21 | 4.3 | 12.2 | 0.00 | 0.00 | 0.00 | 31 | 1019.6 |
| 20260502195019 | 67 | 309 | 7.0 | 16.5 | 0.00 | 0.00 | 0.00 | 30 | 1019.5 |
| 20260502194558 | 67 | 46 | 10.4 | 16.5 | 0.00 | 0.00 | 0.00 | 30 | 1019.6 |
| 20260502194021 | 66 | 20 | 5.2 | 16.5 | 0.00 | 0.00 | 0.00 | 31 | 1019.7 |
| 20260502193516 | 66 | 45 | 7.8 | 18.2 | 0.00 | 0.00 | 0.00 | 31 | 1019.8 |
| 20260502193120 | 66 | 28 | 13.0 | 18.2 | 0.00 | 0.00 | 0.00 | 31 | 1019.6 |
| 20260502192521 | 66 | 346 | 10.4 | 14.8 | 0.00 | 0.00 | 0.00 | 32 | 1019.6 |
| 20260502192020 | 66 | 360 | 8.7 | 16.5 | 0.00 | 0.00 | 0.00 | 31 | 1019.8 |
| 20260502191601 | 66 | 43 | 11.3 | 16.5 | 0.00 | 0.00 | 0.00 | 30 | 1019.7 |
| 20260502191019 | 66 | 306 | 7.8 | 15.6 | 0.00 | 0.00 | 0.00 | 30 | 1019.6 |
| 20260502190522 | 66 | 28 | 7.8 | 13.9 | 0.00 | 0.00 | 0.00 | 30 | 1019.6 |
| 20260502185518 | 66 | 11 | 10.4 | 14.8 | 0.00 | 0.00 | 0.00 | 31 | 1019.8 |
| 20260502185014 | 66 | 38 | 10.4 | 13.9 | 0.00 | 0.00 | 0.00 | 30 | 1019.7 |
| 20260502184602 | 66 | 5 | 9.6 | 12.2 | 0.00 | 0.00 | 0.00 | 33 | 1019.6 |
| 20260502184021 | 65 | 25 | 7.8 | 12.2 | 0.00 | 0.00 | 0.00 | 33 | 1019.8 |
| 20260502183518 | 65 | 347 | 7.0 | 13.9 | 0.00 | 0.00 | 0.00 | 32 | 1019.9 |
| 20260502183100 | 66 | 5 | 9.6 | 15.6 | 0.00 | 0.00 | 0.00 | 31 | 1019.9 |
| 20260502182520 | 66 | 41 | 5.2 | 12.2 | 0.00 | 0.00 | 0.00 | 34 | 1019.8 |
| 20260502182018 | 65 | 54 | 7.0 | 13.9 | 0.00 | 0.00 | 0.00 | 33 | 1019.9 |
| 20260502181559 | 65 | 18 | 7.8 | 13.9 | 0.00 | 0.00 | 0.00 | 32 | 1019.9 |
| 20260502181016 | 65 | 339 | 6.1 | 14.8 | 0.00 | 0.00 | 0.00 | 33 | 1020.1 |
| 20260502180517 | 66 | 342 | 7.0 | 14.8 | 0.00 | 0.00 | 0.00 | 32 | 1020.0 |
| 20260502170514 | 65 | 331 | 8.7 | 12.2 | 0.00 | 0.00 | 0.00 | 34 | 1020.1 |
| 20260502164018 | 62 | 355 | 3.5 | 9.6 | 0.00 | 0.00 | 0.00 | 36 | 1020.3 |
| 20260502163517 | 63 | 67 | 4.3 | 10.4 | 0.00 | 0.00 | 0.00 | 36 | 1020.3 |
| 20260502163045 | 62 | 16 | 5.2 | 10.4 | 0.00 | 0.00 | 0.00 | 37 | 1020.4 |
| 20260502162516 | 62 | 22 | 6.1 | 9.6 | 0.00 | 0.00 | 0.00 | 37 | 1020.4 |
| 20260502162018 | 61 | 51 | 4.3 | 9.6 | 0.00 | 0.00 | 0.00 | 38 | 1020.4 |
| 20260502161547 | 61 | 94 | 4.3 | 10.4 | 0.00 | 0.00 | 0.00 | 38 | 1020.5 |
| 20260502161016 | 61 | 66 | 5.2 | 10.4 | 0.00 | 0.00 | 0.00 | 38 | 1020.4 |
| 20260502160513 | 61 | 67 | 7.0 | 9.6 | 0.00 | 0.00 | 0.00 | 37 | 1020.3 |
| 20260502160105 | 61 | 42 | 1.7 | 9.6 | 0.00 | 0.00 | 0.00 | 38 | 1020.3 |
| 20260502152019 | 58 | 55 | 2.6 | 7.0 | 0.00 | 0.00 | 0.00 | 42 | 1019.9 |
| 20260502151607 | 58 | 352 | 2.6 | 7.8 | 0.00 | 0.00 | 0.00 | 43 | 1020.0 |
| 20260502151016 | 57 | 40 | 2.6 | 7.8 | 0.00 | 0.00 | 0.00 | 43 | 1020.0 |
| 20260502150517 | 57 | 15 | 3.5 | 7.8 | 0.00 | 0.00 | 0.00 | 43 | 1020.0 |
| 20260502130519 | 45 | 360 | 3.5 | 5.2 | 0.00 | 0.00 | 0.00 | 60 | 1019.4 |
| 20260502130109 | 45 | 355 | 3.5 | 7.0 | 0.00 | 0.00 | 0.00 | 60 | 1019.3 |
| 20260502123520 | 43 | 13 | 3.5 | 5.2 | 0.00 | 0.00 | 0.00 | 62 | 1019.2 |
| 20260502123107 | 42 | 17 | 3.5 | 5.2 | 0.00 | 0.00 | 0.00 | 62 | 1018.9 |
| 20260502122521 | 42 | 13 | 3.5 | 5.2 | 0.00 | 0.00 | 0.00 | 62 | 1018.8 |
| 20260502122021 | 42 | 9 | 3.5 | 7.0 | 0.00 | 0.00 | 0.00 | 61 | 1019.1 |
| 20260502121556 | 42 | 352 | 4.3 | 7.0 | 0.00 | 0.00 | 0.00 | 61 | 1019.1 |
| 20260502121010 | 43 | 355 | 3.5 | 7.0 | 0.00 | 0.00 | 0.00 | 61 | 1019.0 |
| 20260502120521 | 42 | 14 | 4.3 | 7.0 | 0.00 | 0.00 | 0.00 | 61 | 1018.8 |
| 20260502120109 | 43 | 352 | 3.5 | 5.2 | 0.00 | 0.00 | 0.00 | 59 | 1018.6 |
| 20260502115520 | 43 | 32 | 3.5 | 7.0 | 0.00 | 0.00 | 0.00 | 59 | 1018.6 |
| 20260502115018 | 44 | 25 | 3.5 | 7.0 | 0.00 | 0.00 | 0.00 | 59 | 1018.5 |
| 20260502114834 | 44 | 30 | 3.5 | 5.2 | 0.00 | 0.00 | 0.00 | 59 | 1018.5 |
| 20260502114018 | 43 | 53 | 2.6 | 7.0 | 0.00 | 0.00 | 0.00 | 60 | 1018.3 |
| 20260502113518 | 43 | 360 | 3.5 | 5.2 | 0.00 | 0.00 | 0.00 | 60 | 1018.3 |
| 20260502113105 | 43 | 42 | 1.7 | 7.0 | 0.00 | 0.00 | 0.00 | 61 | 1018.1 |
| 20260502112516 | 42 | 22 | 1.7 | 9.6 | 0.00 | 0.00 | 0.00 | 60 | 1018.1 |
| 20260502112018 | 42 | 333 | 3.5 | 7.0 | 0.00 | 0.00 | 0.00 | 59 | 1018.4 |
| 20260502111543 | 43 | 39 | 1.7 | 3.5 | 0.00 | 0.00 | 0.00 | 59 | 1018.1 |
| 20260502111017 | 43 | 39 | 1.7 | 4.3 | 0.00 | 0.00 | 0.00 | 59 | 1018.0 |
| 20260502110518 | 43 | 39 | 3.5 | 4.3 | 0.00 | 0.00 | 0.00 | 57 | 1017.8 |
| 20260502110110 | 43 | 39 | 1.7 | 4.3 | 0.00 | 0.00 | 0.00 | 57 | 1017.8 |
| 20260502105516 | 43 | 44 | 2.6 | 4.3 | 0.00 | 0.00 | 0.00 | 57 | 1017.9 |
| 20260502105055 | 43 | 39 | 2.6 | 4.3 | 0.00 | 0.00 | 0.00 | 56 | 1017.5 |
| 20260502104554 | 44 | 51 | 2.6 | 4.3 | 0.00 | 0.00 | 0.00 | 55 | 1017.3 |
| 20260502104017 | 44 | 71 | 2.6 | 4.3 | 0.00 | 0.00 | 0.00 | 54 | 1017.6 |
| 20260502103521 | 45 | 74 | 1.7 | 5.2 | 0.00 | 0.00 | 0.00 | 53 | 1017.5 |
| 20260502103057 | 45 | 45 | 3.5 | 6.1 | 0.00 | 0.00 | 0.00 | 53 | 1017.5 |
| 20260502102529 | 45 | 38 | 3.5 | 6.1 | 0.00 | 0.00 | 0.00 | 53 | 1017.2 |
| 20260502102017 | 45 | 30 | 3.5 | 7.8 | 0.00 | 0.00 | 0.00 | 52 | 1017.3 |
| 20260502101613 | 46 | 19 | 5.2 | 7.8 | 0.00 | 0.00 | 0.00 | 51 | 1017.2 |
| 20260502101017 | 46 | 16 | 4.3 | 8.7 | 0.00 | 0.00 | 0.00 | 51 | 1017.1 |
| 20260502100516 | 45 | 17 | 5.2 | 8.7 | 0.00 | 0.00 | 0.00 | 52 | 1017.0 |
| 20260502100443 | 45 | 13 | 5.2 | 7.8 | 0.00 | 0.00 | 0.00 | 52 | 1017.1 |
| 20260502091014 | 43 | 331 | 7.8 | 10.4 | 0.00 | 0.00 | 0.00 | 53 | 1016.2 |
| 20260502090621 | 43 | 352 | 7.8 | 10.4 | 0.00 | 0.00 | 0.00 | 53 | 1016.2 |
| 20260502090559 | 43 | 343 | 7.0 | 10.4 | 0.00 | 0.00 | 0.00 | 54 | 1015.9 |
| 20260502071017 | 47 | 286 | 3.5 | 5.2 | 0.00 | 0.00 | 0.00 | 44 | 1015.3 |
| 20260502070516 | 47 | 286 | 4.3 | 6.1 | 0.00 | 0.00 | 0.00 | 44 | 1015.3 |
| 20260502070109 | 47 | 288 | 4.3 | 6.1 | 0.00 | 0.00 | 0.00 | 43 | 1015.3 |
| 20260502065515 | 47 | 307 | 2.6 | 4.3 | 0.00 | 0.00 | 0.00 | 43 | 1015.4 |
| 20260502065014 | 47 | 307 | 3.5 | 4.3 | 0.00 | 0.00 | 0.00 | 42 | 1015.4 |
| 20260502064612 | 47 | 290 | 2.6 | 4.3 | 0.00 | 0.00 | 0.00 | 43 | 1015.4 |
| 20260502064014 | 46 | 287 | 2.6 | 4.3 | 0.00 | 0.00 | 0.00 | 43 | 1015.5 |
| 20260502063516 | 47 | 287 | 2.6 | 4.3 | 0.00 | 0.00 | 0.00 | 42 | 1015.4 |
| 20260502063053 | 49 | 288 | 3.5 | 8.7 | 0.00 | 0.00 | 0.00 | 39 | 1015.5 |
| 20260502062521 | 50 | 299 | 6.1 | 8.7 | 0.00 | 0.00 | 0.00 | 37 | 1015.4 |
| 20260502062016 | 52 | 305 | 5.2 | 7.0 | 0.00 | 0.00 | 0.00 | 35 | 1015.6 |
| 20260502061554 | 55 | 315 | 3.5 | 5.2 | 0.00 | 0.00 | 0.00 | 32 | 1015.3 |
| 20260502061017 | 54 | 295 | 2.6 | 4.3 | 0.00 | 0.00 | 0.00 | 33 | 1015.3 |
| 20260502060517 | 54 | 295 | 2.6 | 4.3 | 0.00 | 0.00 | 0.00 | 34 | 1015.2 |
| 20260502060056 | 54 | 295 | 2.6 | 3.5 | 0.00 | 0.00 | 0.00 | 34 | 1015.1 |
| 20260502055517 | 53 | 295 | 1.7 | 3.5 | 0.00 | 0.00 | 0.00 | 35 | 1015.3 |
| 20260502055020 | 51 | 295 | 2.6 | 6.1 | 0.00 | 0.00 | 0.00 | 36 | 1015.3 |
| 20260502054553 | 51 | 295 | 3.5 | 6.1 | 0.00 | 0.00 | 0.00 | 35 | 1015.3 |
| 20260502054016 | 55 | 329 | 2.6 | 3.5 | 0.00 | 0.00 | 0.00 | 30 | 1015.3 |
| 20260502053516 | 58 | 309 | 0.9 | 2.6 | 0.00 | 0.00 | 0.00 | 29 | 1015.2 |
| 20260502053100 | 58 | 309 | 0.9 | 2.6 | 0.00 | 0.00 | 0.00 | 28 | 1015.1 |
| 20260502052518 | 57 | 309 | 0.0 | 3.5 | 0.00 | 0.00 | 0.00 | 29 | 1015.1 |
| 20260502052019 | 57 | 309 | 0.9 | 3.5 | 0.00 | 0.00 | 0.00 | 29 | 1015.2 |
| 20260502051550 | 57 | 309 | 2.6 | 3.5 | 0.00 | 0.00 | 0.00 | 29 | 1015.1 |
| 20260502051011 | 57 | 309 | 1.7 | 2.6 | 0.00 | 0.00 | 0.00 | 29 | 1015.3 |
| 20260502050517 | 57 | 309 | 0.0 | 1.7 | 0.00 | 0.00 | 0.00 | 29 | 1015.1 |
| 20260502050054 | 57 | 309 | 0.0 | 2.6 | 0.00 | 0.00 | 0.00 | 29 | 1015.1 |
| 20260502045521 | 58 | 309 | 0.9 | 4.3 | 0.00 | 0.00 | 0.00 | 28 | 1015.2 |
| 20260502045015 | 59 | 309 | 0.9 | 4.3 | 0.00 | 0.00 | 0.00 | 28 | 1015.0 |
| 20260502044557 | 59 | 309 | 0.0 | 2.6 | 0.00 | 0.00 | 0.00 | 28 | 1015.1 |
| 20260502044018 | 57 | 309 | 0.0 | 3.5 | 0.00 | 0.00 | 0.00 | 29 | 1015.0 |
| 20260502043520 | 57 | 309 | 0.0 | 5.2 | 0.00 | 0.00 | 0.00 | 30 | 1015.0 |
| 20260502043122 | 57 | 309 | 3.5 | 5.2 | 0.00 | 0.00 | 0.00 | 31 | 1015.2 |
| 20260502042517 | 56 | 348 | 0.0 | 5.2 | 0.00 | 0.00 | 0.00 | 30 | 1015.2 |
| 20260502042029 | 55 | 340 | 3.5 | 7.0 | 0.00 | 0.00 | 0.00 | 32 | 1015.2 |
| 20260502041604 | 57 | 303 | 3.5 | 5.2 | 0.00 | 0.00 | 0.00 | 30 | 1015.0 |
| 20260502041014 | 59 | 190 | 3.5 | 4.3 | 0.00 | 0.00 | 0.00 | 28 | 1014.9 |
| 20260502040533 | 58 | 300 | 0.9 | 4.3 | 0.00 | 0.00 | 0.00 | 29 | 1015.1 |
| 20260502040046 | 57 | 300 | 1.7 | 5.2 | 0.00 | 0.00 | 0.00 | 29 | 1015.1 |
| 20260502035516 | 59 | 306 | 2.6 | 5.2 | 0.00 | 0.00 | 0.00 | 27 | 1015.1 |
| 20260502035018 | 59 | 277 | 1.7 | 6.1 | 0.00 | 0.00 | 0.00 | 28 | 1015.0 |
| 20260502034544 | 58 | 277 | 3.5 | 6.1 | 0.00 | 0.00 | 0.00 | 29 | 1014.9 |
| 20260502034016 | 60 | 217 | 2.6 | 4.3 | 0.00 | 0.00 | 0.00 | 27 | 1015.0 |
| 20260502033520 | 59 | 217 | 3.5 | 4.3 | 0.00 | 0.00 | 0.00 | 28 | 1015.0 |
| 20260502033045 | 61 | 217 | 3.5 | 4.3 | 0.00 | 0.00 | 0.00 | 27 | 1015.0 |
| 20260502032520 | 61 | 198 | 2.6 | 4.3 | 0.00 | 0.00 | 0.00 | 27 | 1015.0 |
| 20260502032017 | 60 | 198 | 2.6 | 5.2 | 0.00 | 0.00 | 0.00 | 27 | 1014.8 |
| 20260502031551 | 62 | 198 | 4.3 | 5.2 | 0.00 | 0.00 | 0.00 | 25 | 1014.9 |
| 20260502031029 | 64 | 41 | 1.7 | 2.6 | 0.00 | 0.00 | 0.00 | 24 | 1014.6 |
| 20260502030513 | 64 | 41 | 0.9 | 1.7 | 0.00 | 0.00 | 0.00 | 24 | 1014.7 |
| 20260502030057 | 64 | 41 | 0.9 | 1.7 | 0.00 | 0.00 | 0.00 | 24 | 1014.7 |
| 20260502025523 | 64 | 41 | 0.9 | 1.7 | 0.00 | 0.00 | 0.00 | 24 | 1014.5 |
| 20260502025016 | 64 | 41 | 0.9 | 1.7 | 0.00 | 0.00 | 0.00 | 24 | 1014.4 |
| 20260502024823 | 63 | 41 | 0.9 | 1.7 | 0.00 | 0.00 | 0.00 | 24 | 1014.6 |
| 20260502024013 | 64 | 41 | 0.9 | 1.7 | 0.00 | 0.00 | 0.00 | 24 | 1014.3 |
| 20260502023517 | 64 | 41 | 0.0 | 2.6 | 0.00 | 0.00 | 0.00 | 24 | 1014.5 |
| 20260502023106 | 65 | 41 | 0.0 | 2.6 | 0.00 | 0.00 | 0.00 | 23 | 1014.5 |
| 20260502022518 | 66 | 41 | 1.7 | 2.6 | 0.00 | 0.00 | 0.00 | 23 | 1014.3 |
| 20260502022019 | 66 | 41 | 1.7 | 2.6 | 0.00 | 0.00 | 0.00 | 23 | 1014.4 |
| 20260502021554 | 66 | 41 | 1.7 | 2.6 | 0.00 | 0.00 | 0.00 | 23 | 1014.4 |
| 20260502021017 | 67 | 41 | 1.7 | 2.6 | 0.00 | 0.00 | 0.00 | 22 | 1014.5 |
| 20260502020516 | 68 | 41 | 1.7 | 3.5 | 0.00 | 0.00 | 0.00 | 21 | 1014.4 |
| 20260502020110 | 69 | 41 | 1.7 | 3.5 | 0.00 | 0.00 | 0.00 | 21 | 1014.3 |
| 20260502015521 | 69 | 41 | 2.6 | 3.5 | 0.00 | 0.00 | 0.00 | 20 | 1014.3 |
| 20260502015016 | 71 | 41 | 2.6 | 3.5 | 0.00 | 0.00 | 0.00 | 20 | 1014.4 |
| 20260502014555 | 72 | 41 | 1.7 | 3.5 | 0.00 | 0.00 | 0.00 | 18 | 1014.6 |